Showing default

CARBSAR, 67397

Orbit data source: Space-Track

CARBSAR, 67397 is a payload satellite owned by SSTL (UK) in SSO that was launched on Sun, 11 Jan 2026 UTC via an FALCON 9 launch vehicle from the Air Force Western Test Range (AFWTR). Payload-class satellites include a variety of spacecraft equipped with specific instruments for various scientific and technological missions. These include communications satellites like Starlink; space stations such as the ISS; scientific satellites like the Hubble; Earth observation satellites from companies like Planet Labs, Umbra, and HawkEye 360; GPS; miniature CubeSats for education and research; and military/defense satellites.

Loading next visibility...
Identifier
67397, 2026-004AL
Orbit
SSO
Country
Flag of UKUK
Related business
Manufacturer
SSTL
Mission
Operational Commercial Radar Imaging
Bus & Motor
SSTL-42, Unknown motor
Mass
100 kg wet, 100 kg dry
Launch date (UTC)
2026-01-11 (4 months ago)
Launch vehicle
FALCON 9
Launch site
Air Force Western Test Range (AFWTR)
Object type
Payload
Rocket body
Debris
Shape & HBR
Box + 1 Dish, 1.7 m
Radar Cross Section
0.735 m²

Expand to show TLE details & history
Last TLE update: 8 hours ago

TLE from 8 hours ago
0 CARBSAR
1 67397U 26004AL  26146.57566292  .00005835  00000-0  27957-3 0  9999
2 67397  97.4536 146.0184 0007350  62.8694 297.3289 15.19288404 20488
Epoch: 2026-05-26T13:48Z
TLE epoch observation values (Epoch: 2026-05-26T13:48:57.276Z)
Latitude
-0.00005°
Longitude
54.63263°
Altitude
508.757 km
Speed
7.611 km/s
True Right ascension
09h 44m 04s
True Declination
0° 00' 00"
Sunlit
Object was in daylight at epoch
Visualization orbit readout
Latitude
Unknown
Longitude
Unknown
Altitude
Unknown
Speed
Unknown
Apparent Right ascension
Unknown
Apparent Declination
Unknown
Sunlit
N/A
Visualization observer readout
Local Sidereal Time
06:40:28
Azimuth
Unknown
Elevation
Unknown
Doppler factor
Unknown
Orbital elements
Apogee altitude
510.018 km
Perigee altitude
499.9 km
Semi-major axis
6,883.096 km
Eccentricity
0.00074
Inclination
97.4536°
RAAN
146.0184°
Arg. of periapsis
62.8694°
True anomaly
297.25404°
Mean anomaly
297.3289°
Eccentric anomaly
297.29148°
Mean motion
3.80073 °/min
Orbital period
94.72 mins
BSTAR
0.00027957
Loading maneuver chart data...
Computing Atmospheric mass density...
Loading historical data...
Loading historical data...
Loading historical data...
Loading historical data...
Loading historical data...
Loading historical data...
Loading historical data...

Documentation

Showing up to 5 results
|